FW6767 Weather Reports


time (UTC)temp
C
wind
direction
speed
KPH
gust
KPH
rain 1hr
cm
rain 24hr
cm
rain mn
cm
humidity
%
barometer
mb
20260506004609 21 0 0.0 0.0 0.00 0.00 0.00 62 1014.1
20260506003105 22 0 0.0 0.0 0.00 0.00 0.00 57 1014.1
20260506001600 22 0 0.0 1.6 0.00 0.00 0.00 54 1014.1
20260505234609 23 0 0.0 0.0 0.00 0.00 0.00 50 1014.1
20260505233100 23 0 0.0 3.2 0.00 0.00 0.00 48 1014.1
20260505231606 23 0 0.0 3.2 0.00 0.00 0.00 47 1014.0
20260505230056 24 0 0.0 8.0 0.00 0.00 0.00 47 1013.8
20260505224600 24 324 0.0 6.4 0.00 0.00 0.00 46 1013.7
20260505223057 25 360 0.0 4.8 0.00 0.00 0.00 45 1014.1
20260505221602 25 0 1.6 8.0 0.00 0.00 0.00 42 1013.7
20260505220055 25 300 1.6 4.8 0.00 0.00 0.00 42 1014.0
20260505214618 25 0 1.6 8.0 0.00 0.00 0.00 43 1014.1
20260505213104 25 355 1.6 6.4 0.00 0.00 0.00 43 1014.2
20260505211556 25 202 1.6 8.0 0.00 0.00 0.00 42 1014.2
20260505210103 25 202 0.0 12.9 0.00 0.00 0.00 42 1014.3
20260505204605 26 16 3.2 12.9 0.00 0.00 0.00 41 1014.3
20260505203057 26 288 1.6 6.4 0.00 0.00 0.00 39 1014.6
20260505201558 26 186 1.6 6.4 0.00 0.00 0.00 43 1014.7
20260505200105 26 190 0.0 8.0 0.00 0.00 0.00 45 1014.8
20260505194605 26 219 0.0 6.4 0.00 0.00 0.00 43 1015.0
20260505193057 27 0 1.6 4.8 0.00 0.00 0.00 40 1015.3
20260505191556 27 345 3.2 14.5 0.00 0.00 0.00 39 1015.8
20260505190054 27 42 1.6 6.4 0.00 0.00 0.00 40 1015.9
20260505184556 26 196 1.6 6.4 0.00 0.00 0.00 43 1015.9
20260505183057 27 294 1.6 4.8 0.00 0.00 0.00 44 1016.2
20260505181557 27 111 1.6 6.4 0.00 0.00 0.00 38 1016.1
20260505180112 27 150 1.6 6.4 0.00 0.00 0.00 38 1016.5
20260505174604 27 130 0.0 6.4 0.00 0.00 0.00 40 1016.8
20260505173058 27 355 1.6 16.1 0.00 0.00 0.00 42 1017.0
20260505171559 26 0 3.2 9.7 0.00 0.00 0.00 43 1017.4
20260505170106 25 138 3.2 9.7 0.00 0.00 0.00 42 1017.2
20260505164605 26 235 1.6 8.0 0.00 0.00 0.00 44 1017.2
20260505163059 25 252 1.6 6.4 0.00 0.00 0.00 48 1017.1
20260505161623 25 115 1.6 4.8 0.00 0.00 0.00 50 1017.4
20260505160105 23 110 1.6 6.4 0.00 0.00 0.00 57 1017.4
20260505153059 22 195 0.0 6.4 0.00 0.00 0.00 58 1017.8
20260505151601 22 72 0.0 3.2 0.00 0.00 0.00 56 1017.9
20260505140109 19 0 0.0 3.2 0.00 0.00 0.00 68 1017.7
20260505124559 13 0 0.0 0.0 0.00 0.00 0.00 90 1017.3
20260505123103 11 0 0.0 0.0 0.00 0.00 0.00 96 1017.5
20260505121557 9 0 0.0 0.0 0.00 0.00 0.00 94 1017.2
20260505120058 8 0 0.0 0.0 0.00 0.00 0.00 93 1017.0
20260505114555 8 0 0.0 0.0 0.00 0.00 0.00 94 1016.8
20260505113110 7 0 0.0 0.0 0.00 0.00 0.00 94 1016.6
20260505111556 7 0 0.0 0.0 0.00 0.00 0.00 93 1016.6
20260505101556 7 0 0.0 0.0 0.00 0.00 0.00 93 1016.3
20260505100057 7 0 0.0 0.0 0.00 0.00 0.00 92 1016.3
20260505094555 7 0 0.0 0.0 0.00 0.00 0.00 92 1016.3
20260505093058 8 0 0.0 0.0 0.00 0.00 0.00 93 1016.2
20260505091615 8 0 0.0 0.0 0.00 0.00 0.00 92 1016.2
20260505090057 8 0 0.0 0.0 0.00 0.00 0.00 92 1016.0
20260505084555 8 0 0.0 0.0 0.00 0.00 0.00 92 1016.1
20260505083100 8 0 0.0 0.0 0.00 0.00 0.00 92 1016.1
20260505081602 8 0 0.0 0.0 0.00 0.00 0.00 91 1015.9
20260505080111 8 0 0.0 0.0 0.00 0.00 0.00 90 1015.9
20260505074559 8 0 0.0 0.0 0.00 0.00 0.00 90 1015.5
20260505073058 9 0 0.0 1.6 0.00 0.00 0.00 90 1015.5
20260505071604 9 0 0.0 1.6 0.00 0.00 0.00 89 1015.4
20260505070059 10 0 0.0 0.0 0.00 0.00 0.00 89 1015.6
20260505064557 10 0 0.0 1.6 0.00 0.00 0.00 89 1015.7
20260505063137 10 285 0.0 1.6 0.00 0.00 0.00 88 1015.9
20260505061639 10 0 0.0 1.6 0.00 0.00 0.00 88 1015.9
20260505054559 11 0 0.0 1.6 0.00 0.00 0.00 88 1015.7
20260505053058 11 0 0.0 0.0 0.00 0.00 0.00 87 1015.9
20260505051613 11 0 0.0 0.0 0.00 0.00 0.00 87 1015.9
20260505041556 12 0 0.0 0.0 0.00 0.00 0.00 86 1015.9
20260505040107 12 0 0.0 0.0 0.00 0.00 0.00 85 1015.9
20260505034555 12 0 0.0 0.0 0.00 0.00 0.00 85 1016.1
20260505033056 13 0 0.0 1.6 0.00 0.00 0.00 84 1016.2
20260505031559 13 0 0.0 1.6 0.00 0.00 0.00 84 1016.2
20260505030057 13 0 0.0 0.0 0.00 0.00 0.00 82 1016.2
20260505024555 14 0 0.0 0.0 0.00 0.00 0.00 81 1016.2
20260505023056 14 0 0.0 0.0 0.00 0.00 0.00 80 1016.2
20260505021555 15 0 0.0 0.0 0.00 0.00 0.00 80 1015.8
20260505020104 15 0 0.0 0.0 0.00 0.00 0.00 79 1015.7
20260505014557 15 0 0.0 0.0 0.00 0.00 0.00 77 1015.7
20260505013106 16 0 0.0 1.6 0.00 0.00 0.00 76 1015.7
20260505011555 16 0 0.0 0.0 0.00 0.00 0.00 75 1015.4
20260505010111 17 0 0.0 0.0 0.00 0.00 0.00 72 1015.3